Weather History for KLNK - October, 2013

Change the Weather History Date:

Saturday, October 12, 2013

  Actual Average Record
Temperature  
Mean Temperature 53 °F 55 °F  
Max Temperature 68 °F 68 °F 93 °F (1975)
Min Temperature 37 °F 42 °F 21 °F (1909)
Degree Days  
Heating Degree Days 12 11  
Month to date heating degree days 55 108  
Since 1 July heating degree days 86 206  
Cooling Degree Days 0 1  
Month to date cooling degree days 18 12  
Year to date cooling degree days 1236 1170  
Growing Degree Days 4 (Base 50)    
Moisture  
Dew Point 34 °F    
Average Humidity 51    
Maximum Humidity 79    
Minimum Humidity 22    
Precipitation  
Precipitation 0.00 in 0.07 in 2.59 in (1957)
Month to date precipitation 2.06 0.86  
Year to date precipitation 24.50 25.46  
Snow  
Snow 0.00 in 0.10 in - ()
Month to date snowfall 0.0 0.1  
Since 1 July snowfall 0.0 0.1  
Snow Depth 0.00 in    
Sea Level Pressure  
Sea Level Pressure 30.14 in    
Wind  
Wind Speed 5 mph (NW)    
Max Wind Speed 15 mph    
Max Gust Speed 20 mph    
Visibility 10 miles    
Events      
T = Trace of Precipitation, MM = Missing Value Source: NWS Daily Summary

Daily Weather History Graph

Daily Weather History Graph

Search for Another Location

Airport or City:

Trip Planner

Search our weather history database for the weather conditions in past years. The results will help you decide how hot, cold, wet, or windy it might be!

Date:

Astronomy

Oct. 12, 2013 Rise Set
Actual Time 7:35 AM CDT 6:50 PM CDT
Civil Twilight 7:07 AM CDT 7:18 PM CDT
Nautical Twilight 6:36 AM CDT 7:50 PM CDT
Astronomical Twilight 6:04 AM CDT 8:21 PM CDT
Moon 3:03 PM CDT (10/12) 12:37 AM CDT (10/12)
Length of Visible Light 12h 10m
Length of Day
11h 15m
First Quarter, 59% of the Moon is Illuminated
Oct 12
First Quarter
Oct 18
Full
Oct 26
Last Quarter
Nov 3
New
Nov 9
First Quarter

Hourly Weather History & Observations

Time (CDT) Temp. Windchill Dew Point Humidity Pressure Visibility Wind Dir Wind Speed Gust Speed Precip Events Conditions
12:54 AM 52.0 °F - 39.9 °F 63% 29.94 in 10.0 mi Calm Calm - N/A   Clear
1:54 AM 46.0 °F 44.8 °F 39.9 °F 79% 29.97 in 10.0 mi Variable 3.5 mph - N/A   Clear
2:54 AM 46.9 °F - 39.9 °F 77% 30.00 in 10.0 mi Calm Calm - N/A   Clear
3:54 AM 50.0 °F - 39.0 °F 66% 30.00 in 10.0 mi WNW 5.8 mph - N/A   Clear
4:54 AM 48.9 °F - 37.9 °F 66% 30.03 in 10.0 mi WNW 6.9 mph - N/A   Clear
5:54 AM 46.9 °F - 37.9 °F 71% 30.06 in 10.0 mi NW 5.8 mph - N/A   Clear
6:54 AM 41.0 °F - 36.0 °F 82% 30.09 in 10.0 mi Calm Calm - N/A   Clear
7:54 AM 44.1 °F 42.5 °F 37.0 °F 76% 30.12 in 10.0 mi West 3.5 mph - N/A   Clear
8:54 AM 48.9 °F - 37.0 °F 64% 30.16 in 10.0 mi West 5.8 mph - N/A   Clear
9:54 AM 54.0 °F - 36.0 °F 51% 30.18 in 10.0 mi WNW 9.2 mph - N/A   Clear
10:54 AM 59.0 °F - 33.1 °F 38% 30.18 in 10.0 mi NNW 9.2 mph - N/A   Clear
11:54 AM 62.1 °F - 33.1 °F 34% 30.19 in 10.0 mi NW 10.4 mph - N/A   Clear
12:54 PM 64.0 °F - 32.0 °F 30% 30.19 in 10.0 mi NW 11.5 mph - N/A   Clear
1:54 PM 64.9 °F - 28.9 °F 26% 30.17 in 10.0 mi West 8.1 mph - N/A   Clear
2:54 PM 66.0 °F - 28.0 °F 24% 30.17 in 10.0 mi NW 11.5 mph - N/A   Clear
3:54 PM 66.9 °F - 28.0 °F 23% 30.17 in 10.0 mi West 6.9 mph - N/A   Clear
4:54 PM 66.9 °F - 27.0 °F 22% 30.17 in 10.0 mi NW 5.8 mph - N/A   Clear
5:54 PM 64.9 °F - 27.0 °F 24% 30.19 in 10.0 mi WNW 6.9 mph - N/A   Clear
6:54 PM 62.1 °F - 28.0 °F 28% 30.20 in 10.0 mi WNW 3.5 mph - N/A   Clear
7:54 PM 51.1 °F - 30.9 °F 46% 30.22 in 10.0 mi North 3.5 mph - N/A   Clear
8:54 PM 44.1 °F - 34.0 °F 68% 30.24 in 7.0 mi Calm Calm - N/A   Clear
9:54 PM 45.0 °F - 35.1 °F 68% 30.27 in 9.0 mi Calm Calm - N/A   Clear
10:54 PM 43.0 °F 39.5 °F 35.1 °F 74% 30.29 in 9.0 mi North 5.8 mph - N/A   Clear
11:54 PM 41.0 °F - 35.1 °F 79% 30.31 in 10.0 mi Calm Calm - N/A   Clear